DW0249 Weather Reports


Display with metric or nautical units.
time (UTC)temp
F
wind
direction
speed
MPH
gust
MPH
rain 1hr
in
rain 24hr
in
rain mn
in
humidity
%
barometer
mb
20260505093517 55 0.0 2.0 0.00 0.01 0.00 100 1013.7
20260505092517 55 0.0 0.0 0.00 0.01 0.00 100 1013.6
20260505091517 55 0.0 1.0 0.00 0.01 0.00 100 1013.6
20260505090517 55 0.0 0.0 0.00 0.01 0.00 100 1013.6
20260505085517 55 0.0 0.0 0.00 0.01 0.00 100 1013.5
20260505084516 55 0.0 1.0 0.00 0.01 0.00 100 1013.5
20260505083517 55 0.0 0.0 0.00 0.01 0.00 100 1013.3
20260505082516 55 0.0 1.0 0.00 0.01 0.00 100 1013.3
20260505081517 55 0.0 0.0 0.00 0.01 0.00 100 1013.3
20260505080516 55 0.0 0.0 0.00 0.01 0.00 100 1013.3
20260505075516 54 0.0 0.0 0.00 0.01 0.00 100 1013.4
20260505074517 54 0.0 0.0 0.00 0.01 0.00 100 1013.3
20260505073516 54 0.0 0.0 0.00 0.01 0.00 100 1013.3
20260505072537 55 0.0 0.0 0.00 0.01 0.00 100 1013.1
20260505071517 55 0.0 0.0 0.00 0.01 0.00 100 1013.1
20260505070557 55 0.0 0.0 0.00 0.01 0.00 100 1012.9
20260505065517 55 0.0 0.0 0.00 0.01 0.01 100 1012.7
20260505064537 55 0.0 2.0 0.00 0.01 0.01 100 1012.6
20260505063516 55 0.0 1.0 0.00 0.01 0.01 100 1012.4
20260505062517 56 0.0 1.0 0.00 0.01 0.01 100 1012.3
20260505061516 56 0.0 0.0 0.00 0.01 0.01 100 1012.1
20260505060537 56 0.0 2.0 0.00 0.01 0.01 100 1012.1
20260505055517 56 0.0 2.0 0.00 0.01 0.01 100 1012.1
20260505054516 56 0.0 2.0 0.00 0.01 0.01 100 1012.0
20260505053536 56 0.0 2.0 0.00 0.01 0.01 100 1012.0
20260505052517 57 0.0 3.0 0.00 0.01 0.01 100 1011.8
20260505051536 57 135 1.0 8.0 0.00 0.01 0.01 100 1011.8
20260505050556 57 158 1.0 5.0 0.00 0.01 0.01 100 1011.7
20260505041516 58 158 1.0 3.0 0.00 0.01 0.01 100 1011.5
20260505040516 59 135 1.0 5.0 0.00 0.01 0.01 100 1011.3
20260505035516 59 315 1.0 5.0 0.00 0.01 0.01 100 1011.2
20260505034516 60 135 1.0 5.0 0.00 0.01 0.01 100 1011.1
20260505033516 60 203 1.0 8.0 0.00 0.01 0.01 100 1010.8
20260505032516 61 203 1.0 4.0 0.00 0.01 0.01 100 1010.7
20260505031516 62 0.0 4.0 0.00 0.01 0.01 100 1010.7
20260505030516 63 135 1.0 5.0 0.00 0.01 0.01 100 1010.7
20260505025516 64 270 1.0 7.0 0.00 0.01 0.01 100 1010.5
20260505024516 64 270 1.0 3.0 0.00 0.01 0.01 100 1010.4
20260505023516 65 45 1.0 5.0 0.00 0.01 0.01 100 1010.2
20260505022516 66 113 1.0 4.0 0.00 0.01 0.01 100 1010.2
20260505021516 67 135 2.0 7.0 0.00 0.01 0.01 100 1010.1
20260505020536 68 135 1.0 7.0 0.00 0.01 0.01 100 1010.0
20260505015616 69 135 1.0 3.0 0.00 0.01 0.01 100 1009.9
20260505014516 69 248 1.0 5.0 0.00 0.01 0.01 100 1009.9
20260505013516 70 0.0 3.0 0.00 0.01 0.01 100 1010.0
20260505012516 71 203 1.0 3.0 0.00 0.01 0.01 100 1009.9
20260505011516 71 315 1.0 6.0 0.00 0.01 0.01 100 1009.9
20260505010536 73 113 1.0 5.0 0.00 0.01 0.01 100 1009.9
20260505005536 75 135 1.0 5.0 0.00 0.01 0.01 100 1010.0
20260505004516 75 23 1.0 3.0 0.00 0.01 0.01 100 1010.0
20260505003515 76 315 1.0 5.0 0.00 0.01 0.01 100 1009.9
20260505002516 78 158 1.0 4.0 0.00 0.01 0.01 100 1009.9
20260505001516 78 315 1.0 6.0 0.00 0.01 0.01 100 1009.8
20260505000556 78 338 1.0 4.0 0.00 0.01 0.01 100 1009.7
20260504235515 78 293 1.0 3.0 0.00 0.01 0.01 100 1009.6
20260504234515 79 0 1.0 4.0 0.00 0.01 0.01 100 1009.8
20260504233516 79 135 1.0 5.0 0.00 0.01 0.01 100 1009.9
20260504232516 79 203 1.0 7.0 0.00 0.01 0.01 100 1009.8
20260504231516 80 338 1.0 4.0 0.00 0.01 0.01 100 1009.9
20260504230515 79 203 1.0 5.0 0.00 0.01 0.01 100 1009.9
20260504225515 79 338 1.0 5.0 0.00 0.01 0.01 100 1010.1
20260504224515 79 135 1.0 4.0 0.00 0.01 0.01 100 1010.1
20260504223515 79 135 2.0 8.0 0.00 0.01 0.01 100 1010.2
20260504222515 79 0.0 2.0 0.00 0.01 0.01 100 1010.3
20260504221515 78 315 2.0 4.0 0.00 0.01 0.01 100 1010.4
20260504220517 78 135 1.0 4.0 0.00 0.01 0.01 100 1010.3
20260504215517 78 315 1.0 5.0 0.00 0.01 0.01 100 1010.4
20260504214537 78 135 1.0 5.0 0.00 0.01 0.01 100 1010.4
20260504213517 79 158 1.0 4.0 0.00 0.01 0.01 100 1010.3
20260504212517 78 0.0 2.0 0.00 0.01 0.01 100 1010.5
20260504211517 76 180 1.0 3.0 0.00 0.01 0.01 100 1010.7
20260504210517 77 158 1.0 7.0 0.00 0.01 0.01 100 1010.8
20260504205517 76 0.0 2.0 0.00 0.01 0.01 100 1010.9
20260504204517 76 135 1.0 5.0 0.00 0.01 0.01 100 1010.8
20260504203517 76 135 1.0 6.0 0.00 0.01 0.01 100 1010.9
20260504202517 75 135 1.0 3.0 0.00 0.01 0.01 100 1010.9
20260504201537 75 158 1.0 5.0 0.00 0.01 0.01 100 1010.8
20260504200517 75 158 1.0 5.0 0.00 0.01 0.01 100 1011.1
20260504195517 74 0.0 2.0 0.00 0.01 0.01 100 1011.0
20260504194517 73 135 1.0 4.0 0.00 0.01 0.01 100 1011.0
20260504193537 73 135 1.0 4.0 0.00 0.01 0.01 100 1011.0
20260504192517 73 135 1.0 7.0 0.00 0.01 0.01 100 1011.1
20260504191537 72 135 1.0 4.0 0.00 0.01 0.01 100 1011.0
20260504190517 72 158 1.0 6.0 0.00 0.01 0.01 100 1011.4
20260504185517 72 180 1.0 4.0 0.00 0.01 0.01 100 1011.5
20260504184517 72 135 1.0 5.0 0.00 0.01 0.01 100 1011.6
20260504183517 71 0.0 3.0 0.00 0.01 0.01 100 1011.3
20260504182517 70 135 1.0 4.0 0.00 0.01 0.01 100 1011.5
20260504181517 69 135 1.0 4.0 0.00 0.01 0.01 100 1011.6
20260504180536 68 135 1.0 6.0 0.00 0.01 0.01 100 1011.4
20260504175557 67 315 1.0 4.0 0.00 0.01 0.01 100 1011.4
20260504174516 66 0.0 2.0 0.00 0.01 0.01 100 1011.5
20260504173516 66 0.0 3.0 0.00 0.01 0.01 100 1011.7
20260504172517 65 158 1.0 5.0 0.00 0.01 0.01 100 1011.6
20260504171516 65 135 1.0 5.0 0.00 0.01 0.01 100 1011.6
20260504170516 64 180 1.0 3.0 0.00 0.01 0.01 100 1011.7
20260504150516 58 0.0 2.0 0.00 0.01 0.01 100 1010.8
20260504140516 54 0.0 0.0 0.00 0.01 0.01 100 1010.5
20260504130516 52 0.0 0.0 0.00 0.01 0.01 100 1009.8
20260504110515 54 0.0 0.0 0.00 0.00 0.00 100 1009.4
20260504100517 55 0.0 0.0 0.00 0.00 0.00 100 1009.2